Location: Beulah
(33.1426°N, 83.0557°W)
Time: 06:01:14
(UTC+00:00)

Envisat - Visible Passes

Search period start: 30 November 2021 00:00
Search period end: 10 December 2021 00:00
Orbit: 764 x 766 km, 98.2° (Epoch: 29 November)

Date Brightness Start Highest point End Pass type
(mag) Time Alt. Az. Time Alt. Az. Time Alt. Az.
30 Nov 4.7 09:47:39 10° NE 09:52:08 31° E 09:56:35 10° SSE visible
30 Nov 4.0 11:26:54 10° NNW 11:30:57 25° WNW 11:35:00 10° WSW visible
01 Dec 6.0 09:12:54 10° ENE 09:15:01 12° E 09:17:08 10° ESE visible
01 Dec 3.0 10:49:21 10° N 10:54:19 58° WNW 10:59:17 10° SSW visible
02 Dec 3.5 10:12:30 10° NNE 10:17:31 58° E 10:22:29 10° S visible
02 Dec 6.0 23:03:55 10° SW 23:06:46 15° W 23:09:38 10° WNW visible
03 Dec 5.2 09:36:28 10° NE 09:40:31 24° E 09:44:32 10° SSE visible
03 Dec 3.6 11:15:02 10° N 11:19:29 31° WNW 11:23:55 10° SW visible
04 Dec 2.8 10:37:43 10° N 10:42:48 76° WNW 10:47:51 10° SSW visible
05 Dec 4.1 10:01:06 10° NNE 10:05:56 44° E 10:10:45 10° S visible
05 Dec 4.3 11:41:14 10° NNW 11:44:32 18° WNW 11:47:52 10° WSW visible
05 Dec 5.8 22:51:29 10° SW 22:55:08 20° W 22:58:48 10° NW visible
06 Dec 5.5 09:25:27 10° NE 09:28:53 18° E 09:32:19 10° SE visible
06 Dec 3.3 11:03:16 10° N 11:08:00 41° WNW 11:12:44 10° SW visible
07 Dec 3.0 10:26:10 10° NNE 10:31:16 83° ESE 10:36:20 10° S visible
07 Dec 6.6 23:20:33 10° W 23:20:39 10° W 23:20:45 10° W visible
08 Dec 4.6 09:49:45 10° NNE 09:54:21 33° E 09:58:53 10° SSE visible
08 Dec 4.0 11:29:12 10° NNW 11:33:06 23° WNW 11:37:00 10° WSW visible
09 Dec 5.9 09:14:43 10° ENE 09:17:14 14° E 09:19:45 10° ESE visible
09 Dec 3.0 10:51:33 10° N 10:56:30 53° WNW 11:01:25 10° SSW visible
